User: anonymous   Login
Location: Vancouver
(49.2500°N, 123.1330°W)
Time: 15:34:49
(UTC-07:00)
Language:

YAOGAN 6 - Orbit

View from above orbital plane
View from above orbital plane
View from above satellite
View from above satellite

Ground track
Ground track

The orbit data is extracted from the following two-line orbital elements,

1 34839U 09021A   15150.44086351  .00002349  00000-0  10106-3 0  9991
2 34839 097.2439 219.1753 0032626 090.7810 007.6783 15.23105677338502
Epoch (UTC): 30 May 2015 10:34:50
Eccentricity: 0.0032626
inclination: 97.2439°
perigee height: 474 km
apogee height: 519 km
right ascension of ascending node: 219.1753°
argument of perigee: 90.7810°
revolutions per day: 15.23105677
mean anomaly at epoch: 7.6783°
orbit number at epoch: 33850

The dashed part of the orbit path shows where the satellite is in the earth's shadow,  

DLR